Vertical_Velocity
-1 -0 -1 5 4 -3 5 4 2 8 2 5 5 -2 1 9 5 -1 1 7 5 5 1 -1 -0 3 1 -0 3 7 3 -1 -2 0 3 6 -5 -1 -2 -0 2 2 -5 4 -3 -3 -13 9 -2 -3 3 2 2 2
2 0 -0 0 2 2 4 -0 1 5 5 1 -3 3 2 8 2 5 -4 4 2 2 -3 3 -3 2 2 -3 4 1 1 3 -2 -0 1 1 -2 -2 3 -2 2 -3 -1 1 -2 -2 1 3 2 -3 -1 0 1 1
1 2 1 1 3 3 3 3 4 3 2 7 -1 -0 -8 4 4 0 -1 -1 4 1 5 -2 3 4 1 5 3 2 -1 3 1 -2 -4 -4 -3 2 -0 3 3 1 0 2 -3 6 -3 -2 -0 0 -1 -1 0 -2
0 2 3 2 1 3 3 2 3 3 3 -0 -2 -2 -3 7 2 3 1 -5 1 6 1 -1 -0 -2 -1 2 4 2 3 -1 1 1 0 1 1 2 4 1 2 4 3 3 -2 -1 -4 1 2 0 -3 -2 -2 -4
3 2 8 7 2 -3 1 3 1 3 2 -1 -1 -0 -6 2 1 3 1 -1 0 4 1 2 1 2 3 2 1 0 1 2 2 1 3 0 1 -1 1 1 14 -0 2 -4 3 -4 -1 6 -3 -3 -3 -0 -3 -1
4 5 -0 0 -1 -1 2 0 -1 5 -2 4 4 1 -1 -2 -1 2 3 -1 -3 -1 -3 -3 3 -0 -0 1 0 -0 2 -0 1 1 2 2 7 -5 -2 9 9 -4 -3 1 -0 2 5 1 1 -6 -2 -5 -5 -1
4 2 4 3 1 1 2 4 3 2 5 4 3 5 5 6 6 4 5 4 2 -1 0 -1 -2 1 -0 0 2 2 2 3 3 0 1 3 1 -5 2 10 -5 2 -1 -4 -0 -1 2 -4 5 -4 -3 -1 -3 -0
3 2 9 7 0 -0 3 2 2 2 2 2 2 1 0 1 0 -1 1 2 1 0 1 -3 2 2 3 2 -1 0 0 1 2 1 3 1 2 -1 4 -1 0 1 -1 -0 1 1 1 -1 -2 -1 -6 -2 -1 2
6 6 2 1 0 2 3 2 1 -1 0 -1 -1 1 2 2 0 1 -1 -0 -1 1 -3 1 2 1 1 1 2 2 -0 1 2 3 1 -1 3 -3 -3 2 2 -2 -2 -2 -1 -1 -3 2 -2 -3 -1 -2 -4 -3
5 2 -0 0 -1 -0 1 0 -0 -1 -1 -0 2 1 -1 -1 -0 -0 -2 -1 -0 -1 1 1 0 1 2 1 1 2 2 -1 1 1 -2 2 5 -6 -3 -2 -2 0 0 1 1 -6 -6 1 -1 0 2 2 -1 -1
0 -1 1 2 1 1 -0 -0 0 -1 1 -1 -1 -1 -1 -0 -0 -0 -1 1 0 2 1 1 1 2 1 1 1 2 1 -1 -1 4 -5 4 8 -6 -5 -3 -2 -1 -2 -3 1 0 -4 -0 1 -1 0 -4 -6 -4
1 2 3 2 1 1 0 1 0 0 -0 -0 1 1 1 -0 -0 0 -0 -0 0 0 1 0 0 0 1 0 1 1 -1 -3 -3 -1 -3 3 -2 -3 -2 -3 -3 -2 -2 -3 -4 1 1 2 0 1 2 6 1 -2
2 3 2 2 0 0 1 1 1 1 2 1 -1 -2 -0 -0 0 1 -0 -0 0 0 0 0 0 1 0 0 -0 -1 -1 0 -3 -2 -1 1 -1 -0 -2 -1 -3 -3 -2 -1 -2 -0 2 3 1 -5 2 -2 1 7
2 1 2 1 2 3 3 2 1 1 0 -1 -1 -1 -1 -0 -0 -1 -1 -1 -1 -1 -1 -0 -1 -0 -1 -0 -1 1 -3 -2 -4 0 -3 -2 -1 -1 -2 -3 -2 -3 -2 0 -1 -2 -2 -3 2 -2 -4 1 3 1
2 2 1 0 -1 -0 1 1 1 1 -0 -0 0 0 1 0 1 -0 -0 -0 -0 -0 0 -1 0 2 -1 1 1 -2 -3 -2 0 -4 1 -1 -3 -4 -3 -1 -0 -0 -1 -1 -2 0 -1 -0 0 2 -3 0 -1 -0
-1 -2 -1 -0 0 0 1 0 -0 0 -0 1 1 0 1 1 0 -0 0 0 0 -0 0 0 0 0 0 -2 2 -2 -2 1 -3 0 -1 -2 -2 -3 -1 -0 0 -1 -1 -0 -1 -0 -0 -0 1 2 -0 0 -1 0
-0 -0 0 1 1 -0 -1 -0 1 1 1 1 -0 0 0 -0 -0 -1 1 0 -0 0 0 -0 0 -2 -2 -3 1 -1 -0 -0 -1 -2 -1 -3 -2 -3 -1 2 -2 -1 -0 -1 -0 -1 1 1 1 1 1 1 2 2
1 1 0 -1 -0 -0 -0 1 -0 -0 -1 -1 -1 -0 -0 0 -0 -0 -0 -0 0 -1 -1 -1 -2 0 -4 -2 1 -1 -1 -1 -1 -1 -0 -3 -3 -1 1 -0 -2 0 -0 -1 0 0 1 2 1 -1 1 3 3 2
-0 1 1 1 1 1 0 -1 1 -0 0 -0 0 -0 -0 -0 -1 -1 -1 -1 -1 -2 -2 -1 -4 -1 -1 1 -1 -2 -3 -3 1 -0 -1 -5 -4 2 -1 -2 -0 -0 -1 0 0 1 2 1 0 1 1 1 1 3
1 1 1 1 1 0 -0 0 2 1 -0 -1 0 -1 -0 0 -0 -0 -1 -1 -2 -2 -2 -1 1 -1 -2 -3 -3 -0 -1 -5 -2 4 -3 -4 2 -1 -2 1 1 0 -0 1 2 1 0 0 1 0 1 1 2 2
0 -1 -1 1 0 1 1 0 0 1 -0 0 1 0 0 0 -1 -2 -2 -2 -1 -1 -1 -1 -1 -2 -2 -3 -3 -1 -4 -4 -4 1 -3 -0 -2 -2 1 2 1 -1 1 1 0 -0 1 0 1 1 1 1 1 2
0 0 -1 -0 -1 -0 1 -0 -0 -0 -0 0 -0 -1 -1 -1 -1 -1 -1 -0 -0 -1 -1 -2 -2 -1 -2 -0 -0 0 -1 -1 -0 -0 -0 -2 -2 1 1 2 0 1 1 0 0 1 -0 -0 0 -1 1 0 1 1
0 0 -1 -1 -0 -1 -1 -2 -1 -0 -0 -1 -1 -1 -0 1 -0 -0 -1 -0 -1 -1 -1 -0 -0 1 1 1 2 2 2 1 0 -1 -1 1 2 0 0 -0 1 0 0 -0 1 1 -0 -0 0 0 0 1 1 1
-0 -2 -1 -1 -1 -2 -2 -2 -1 -1 -1 -0 -0 0 -0 0 -1 -0 -1 -0 -1 -1 -1 -0 1 1 1 2 3 3 1 0 -0 -0 1 0 -1 -1 0 1 -0 1 -0 1 1 1 -0 -1 -0 2 1 2 1 2
-1 -1 -1 -2 -2 -1 -0 -0 -0 1 1 1 0 -1 -0 -0 -1 -1 -0 -1 0 0 0 1 2 2 2 1 0 0 1 1 1 0 0 0 -0 0 -0 -0 2 0 0 1 -0 -1 0 1 0 0 1 1 -0 1
-0 -1 -0 -1 -2 -3 -3 -4 -3 -1 -1 -1 -1 -0 -0 -0 0 0 -1 -0 1 1 1 0 -0 -0 0 1 1 1 1 1 0 -0 -0 -0 1 -0 1 1 -0 1 -0 -2 -3 -0 5 -1 0 2 3 3 -0 3
0 -0 -1 -2 -2 -3 -3 -3 -2 -1 -1 -0 -0 0 0 1 1 -0 1 1 1 1 0 0 1 1 1 1 1 1 1 0 -0 -0 1 1 -0 0 1 0 1 1 -1 -0 0 0 -2 -1 1 1 0 1 0 -3
-1 -1 -1 -2 -2 -2 -2 -1 0 0 0 0 0 0 0 1 0 1 1 1 1 0 0 1 1 0 -0 1 1 1 1 0 -0 0 1 0 1 0 1 1 1 2 1 0 -0 -0 1 0 0 1 3 2 5 -0
-0 -1 -1 -1 -1 -1 -1 -0 1 1 0 -0 -0 -0 -1 1 1 1 1 1 0 -0 0 0 0 1 1 1 1 1 1 1 1 1 2 1 1 1 2 4 2 -1 1 4 2 -4 -3 -1 0 -0 -1 6 5 4
-0 -1 -1 -1 -1 -1 -0 -0 0 -0 -0 0 -0 1 -0 1 1 1 1 1 0 1 1 1 2 2 2 1 1 1 1 1 1 1 1 2 3 2 0 -1 2 5 10 6 10 4 -1 2 2 2 2 2 2 2
-0 -1 -1 -0 -0 -1 -1 -1 -1 -1 -1 -0 -1 -1 -0 0 1 1 1 1 1 0 1 2 1 1 2 -0 1 2 1 2 3 3 1 2 6 6 -0 -4 -0 3 1 4 1 1 2 0 3 1 1 2 1 1
-0 -1 -1 -0 -1 -1 -1 -1 -1 -1 -1 -1 -1 -0 -1 0 1 1 1 1 1 2 2 1 1 1 1 0 1 2 3 3 3 2 2 1 3 5 6 4 2 1 1 2 3 2 1 2 4 1 0 2 1 1
-1 -1 -1 -1 -1 -1 -1 -1 -1 -1 -0 -1 -1 -1 -1 -1 -0 0 1 1 1 1 1 1 0 1 1 1 2 3 3 2 1 2 1 2 3 2 1 1 1 3 3 3 3 3 3 0 2 1 2 1 1 1
Height
5433 5441 5451 5461 5470 5479 5486 5493 5499 5504 5510 5515 5520 5522 5529 5533 5534 5535 5538 5541 5541 5541 5542 5545 5546 5548 5549 5549 5550 5551 5551 5551 5552 5552 5553 5553 5552 5553 5553 5551 5550 5549 5547 5547 5546 5545 5545 5548 5548 5549 5549 5549 5550 5550
5421 5428 5436 5445 5455 5464 5472 5478 5485 5491 5495 5500 5503 5509 5514 5519 5519 5522 5523 5526 5527 5527 5528 5529 5531 5532 5533 5534 5535 5534 5537 5538 5538 5538 5539 5538 5539 5538 5538 5538 5537 5537 5536 5536 5536 5535 5535 5536 5536 5537 5538 5538 5538 5539
5411 5417 5424 5434 5443 5451 5459 5466 5472 5478 5482 5487 5490 5494 5499 5505 5506 5508 5509 5512 5514 5515 5514 5514 5516 5518 5518 5519 5520 5521 5521 5523 5524 5524 5524 5524 5524 5524 5524 5524 5523 5523 5523 5523 5523 5524 5524 5524 5525 5526 5527 5527 5527 5527
5403 5411 5419 5427 5435 5442 5449 5455 5461 5466 5471 5474 5477 5480 5486 5492 5494 5496 5497 5498 5500 5502 5499 5500 5501 5502 5504 5505 5506 5507 5509 5509 5510 5511 5511 5511 5511 5511 5511 5511 5511 5512 5511 5511 5511 5512 5513 5514 5514 5514 5514 5513 5513 5513
5402 5408 5414 5422 5428 5434 5440 5446 5451 5456 5461 5465 5469 5470 5474 5478 5481 5483 5484 5485 5487 5488 5488 5489 5489 5490 5492 5493 5494 5495 5496 5497 5497 5497 5498 5498 5498 5498 5499 5500 5502 5499 5499 5500 5501 5501 5502 5503 5501 5500 5500 5499 5497 5497
5401 5407 5411 5416 5422 5429 5434 5439 5444 5449 5452 5457 5460 5462 5465 5467 5471 5474 5475 5476 5477 5477 5477 5478 5479 5480 5481 5482 5483 5483 5484 5484 5484 5484 5485 5485 5486 5485 5488 5490 5490 5487 5488 5489 5489 5490 5490 5489 5487 5484 5484 5482 5479 5478
5401 5406 5411 5416 5421 5425 5430 5435 5439 5443 5447 5449 5453 5455 5458 5460 5463 5465 5467 5467 5467 5468 5468 5468 5468 5470 5471 5471 5471 5472 5471 5471 5472 5472 5473 5474 5474 5475 5477 5480 5477 5478 5478 5478 5477 5477 5476 5473 5472 5468 5466 5463 5460 5458
5403 5408 5412 5415 5419 5423 5427 5431 5434 5437 5439 5441 5444 5447 5449 5451 5453 5455 5456 5456 5457 5458 5459 5459 5460 5460 5460 5459 5460 5460 5460 5461 5462 5463 5464 5465 5466 5466 5468 5468 5467 5468 5467 5466 5464 5462 5460 5457 5454 5450 5448 5446 5444 5442
5404 5408 5411 5414 5416 5420 5423 5426 5428 5430 5432 5434 5437 5439 5440 5442 5442 5443 5445 5446 5447 5449 5448 5449 5449 5450 5450 5450 5450 5451 5452 5452 5454 5455 5456 5456 5457 5456 5456 5457 5457 5455 5454 5452 5450 5447 5444 5442 5438 5434 5432 5431 5431 5432
5405 5408 5410 5411 5413 5416 5419 5421 5423 5425 5426 5428 5430 5432 5432 5433 5433 5434 5435 5436 5437 5438 5439 5440 5440 5441 5443 5443 5443 5445 5445 5445 5446 5448 5446 5447 5449 5446 5445 5445 5444 5442 5440 5438 5435 5431 5429 5427 5424 5423 5423 5423 5422 5422
5405 5408 5409 5411 5413 5414 5416 5417 5419 5420 5421 5422 5423 5425 5426 5426 5427 5428 5429 5431 5432 5433 5433 5434 5435 5435 5436 5437 5437 5437 5436 5436 5437 5439 5437 5438 5438 5435 5433 5432 5430 5428 5425 5423 5421 5418 5414 5415 5414 5414 5414 5413 5411 5410
5405 5407 5409 5410 5411 5412 5414 5415 5416 5417 5417 5419 5420 5421 5422 5423 5424 5425 5426 5427 5427 5428 5428 5428 5429 5429 5429 5429 5429 5429 5428 5428 5427 5428 5428 5427 5426 5422 5420 5418 5415 5413 5411 5408 5407 5406 5405 5406 5406 5406 5404 5403 5401 5399
5405 5407 5408 5409 5410 5411 5412 5413 5414 5414 5415 5416 5417 5418 5419 5420 5421 5421 5421 5421 5422 5421 5422 5422 5422 5422 5421 5421 5420 5419 5418 5418 5417 5416 5415 5414 5411 5409 5407 5404 5402 5400 5399 5397 5396 5396 5397 5398 5397 5395 5394 5392 5390 5388
5404 5405 5406 5407 5408 5409 5410 5411 5411 5412 5413 5414 5414 5414 5415 5415 5415 5415 5415 5415 5415 5414 5414 5414 5413 5413 5412 5411 5410 5409 5408 5406 5405 5404 5402 5400 5398 5396 5394 5393 5392 5389 5388 5388 5389 5390 5391 5390 5388 5385 5383 5381 5379 5375
5402 5403 5403 5404 5404 5405 5407 5407 5407 5408 5408 5408 5408 5408 5408 5408 5407 5407 5407 5406 5406 5405 5405 5404 5404 5403 5401 5401 5399 5397 5395 5394 5393 5391 5390 5388 5386 5384 5383 5383 5382 5381 5380 5381 5383 5384 5384 5382 5379 5377 5373 5370 5367 5364
5400 5401 5402 5403 5404 5404 5404 5404 5404 5403 5403 5403 5402 5401 5401 5400 5399 5399 5398 5397 5397 5396 5395 5394 5392 5391 5390 5388 5387 5384 5383 5382 5380 5380 5378 5376 5375 5374 5375 5375 5374 5374 5375 5377 5377 5377 5376 5374 5371 5368 5365 5361 5357 5352
5402 5402 5402 5402 5402 5401 5400 5400 5399 5398 5397 5396 5395 5394 5393 5392 5391 5390 5389 5387 5386 5385 5383 5381 5380 5378 5377 5375 5375 5373 5372 5371 5369 5368 5367 5366 5366 5366 5366 5367 5367 5369 5371 5372 5372 5371 5369 5367 5364 5362 5357 5352 5347 5341
5400 5400 5399 5398 5397 5396 5395 5393 5392 5391 5390 5388 5387 5385 5384 5383 5381 5380 5378 5377 5376 5374 5372 5371 5369 5368 5365 5364 5363 5361 5360 5359 5359 5358 5358 5357 5358 5359 5360 5361 5363 5365 5366 5367 5366 5365 5363 5362 5359 5356 5351 5345 5339 5333
5397 5396 5394 5393 5391 5390 5388 5386 5385 5383 5381 5379 5378 5376 5375 5373 5371 5370 5369 5367 5366 5364 5363 5361 5359 5358 5355 5353 5351 5350 5349 5349 5350 5350 5350 5350 5351 5352 5354 5356 5359 5361 5362 5362 5361 5360 5359 5357 5355 5351 5345 5339 5335 5331
5392 5391 5389 5386 5384 5382 5380 5378 5376 5374 5372 5371 5369 5367 5366 5365 5363 5362 5361 5360 5358 5357 5355 5353 5351 5347 5344 5342 5340 5340 5340 5339 5341 5342 5343 5343 5345 5347 5350 5354 5356 5357 5358 5358 5358 5357 5356 5354 5351 5348 5344 5340 5337 5335
5385 5383 5380 5378 5375 5373 5371 5369 5367 5365 5363 5362 5361 5359 5359 5358 5357 5356 5355 5354 5352 5350 5347 5344 5340 5337 5333 5329 5327 5327 5328 5330 5332 5335 5337 5339 5342 5345 5348 5351 5353 5354 5354 5355 5356 5355 5354 5352 5349 5347 5346 5344 5344 5345
5376 5373 5371 5368 5366 5364 5362 5360 5359 5358 5357 5356 5355 5354 5354 5354 5353 5352 5351 5349 5346 5343 5341 5337 5334 5331 5326 5323 5320 5319 5320 5323 5327 5330 5333 5337 5341 5344 5347 5349 5350 5351 5353 5354 5354 5354 5353 5351 5349 5349 5350 5351 5353 5356
5367 5365 5362 5361 5359 5357 5357 5356 5355 5354 5353 5352 5352 5351 5351 5350 5349 5348 5346 5344 5341 5339 5337 5335 5331 5328 5325 5322 5320 5319 5320 5323 5327 5330 5334 5337 5340 5343 5345 5346 5348 5350 5352 5353 5354 5354 5354 5352 5353 5354 5356 5359 5362 5366
5360 5358 5357 5356 5355 5354 5353 5352 5351 5349 5349 5348 5347 5347 5347 5346 5345 5343 5342 5341 5340 5338 5335 5333 5331 5328 5326 5324 5323 5323 5324 5327 5329 5332 5334 5337 5339 5341 5343 5345 5348 5350 5352 5353 5354 5356 5357 5356 5358 5360 5363 5366 5371 5375
5357 5356 5356 5354 5353 5352 5350 5347 5345 5343 5342 5341 5342 5342 5342 5342 5341 5341 5340 5340 5338 5336 5334 5332 5330 5329 5328 5327 5327 5327 5328 5330 5331 5333 5335 5337 5339 5341 5343 5346 5348 5350 5352 5354 5355 5357 5360 5361 5363 5366 5370 5374 5378 5382
5354 5354 5355 5353 5352 5350 5346 5343 5340 5337 5336 5336 5336 5337 5338 5339 5339 5340 5340 5338 5337 5335 5333 5332 5331 5330 5329 5328 5328 5329 5330 5331 5332 5333 5335 5337 5339 5342 5344 5347 5350 5352 5355 5358 5360 5362 5364 5365 5369 5373 5377 5382 5385 5389
5354 5354 5354 5352 5351 5348 5345 5342 5339 5336 5335 5334 5334 5335 5336 5338 5339 5340 5339 5338 5336 5335 5334 5333 5331 5330 5330 5329 5329 5329 5330 5331 5332 5334 5336 5338 5341 5343 5346 5349 5352 5355 5358 5361 5363 5365 5367 5370 5374 5379 5383 5387 5392 5396
5354 5353 5353 5352 5350 5348 5345 5342 5339 5337 5335 5334 5335 5335 5337 5339 5340 5340 5339 5338 5337 5336 5335 5333 5332 5332 5331 5331 5331 5331 5332 5333 5334 5336 5338 5340 5342 5345 5348 5351 5355 5358 5362 5364 5366 5368 5371 5375 5380 5384 5389 5394 5399 5402
5353 5353 5353 5351 5350 5348 5346 5344 5341 5339 5337 5337 5337 5338 5339 5340 5340 5340 5340 5339 5338 5337 5336 5335 5334 5334 5333 5333 5333 5334 5334 5335 5336 5338 5339 5341 5344 5347 5350 5354 5358 5362 5366 5368 5369 5371 5373 5378 5384 5389 5393 5399 5404 5408
5353 5353 5352 5351 5349 5348 5347 5345 5343 5341 5339 5338 5338 5340 5341 5342 5342 5342 5341 5340 5339 5338 5337 5336 5336 5335 5335 5336 5336 5337 5337 5338 5339 5340 5342 5345 5348 5350 5354 5358 5362 5366 5369 5372 5375 5378 5381 5386 5390 5394 5399 5404 5408 5412
5352 5352 5351 5350 5348 5348 5346 5345 5344 5342 5341 5339 5340 5341 5342 5343 5344 5343 5342 5341 5340 5340 5339 5338 5338 5338 5339 5339 5339 5340 5341 5342 5343 5345 5347 5350 5354 5357 5360 5364 5366 5369 5372 5375 5380 5384 5388 5392 5395 5400 5404 5408 5412 5416
5351 5351 5350 5349 5348 5347 5346 5345 5344 5343 5342 5340 5340 5341 5343 5344 5345 5345 5344 5343 5342 5341 5341 5341 5341 5342 5342 5342 5343 5344 5345 5346 5347 5349 5352 5355 5358 5361 5364 5367 5370 5372 5376 5379 5383 5387 5391 5395 5399 5403 5407 5411 5415 5420
5350 5349 5348 5348 5346 5345 5344 5344 5343 5343 5342 5341 5340 5341 5342 5344 5346 5346 5346 5345 5345 5344 5343 5344 5344 5344 5345 5346 5347 5349 5350 5350 5352 5354 5356 5359 5362 5365 5368 5371 5374 5377 5380 5383 5387 5390 5394 5398 5402 5406 5409 5413 5417 5421